Date String (YYYY-MM-DD hh:mm:ss) UTC,Instrument flags,Ambient pressure (hPa),Sample flow (lpm),Bypass flow (lpm),Sample temperature (°C),Ambient temperature (°C),ASC tube jacket temperature (°C),LED temperature (°C),Box temperature (°C),Sample RH (%),Span deviation,Mass concentration (μg/m³),Mass concentration (μg/m³),Mass concentration (μg/m³)
DateTimeUTC,F1_M11,P_M11,Q1_M11,Q2_M11,T1_M11,T2_M11,T3_M11,T4_M11,T5_M11,U1_M11,ZSPAN_M11,X0_M11,X2_M11,X1_M11
2022-07-28 12:00:00,,0831.9,5.01,0.00,31.4,29.0,00.0,39.7,32.4,34.6,0000.0,0010.41,0006.08,0005.29
2022-07-28 12:01:00,,0831.9,4.99,0.00,31.4,29.0,00.0,39.7,32.4,34.5,0000.0,0010.44,0006.04,0005.26
2022-07-28 12:02:00,,0832.0,5.01,0.00,31.4,29.1,00.0,39.7,32.4,34.3,0000.0,0010.88,0006.03,0005.25
2022-07-28 12:03:00,,0832.0,5.00,0.00,31.4,29.1,00.0,39.7,32.4,34.3,0000.0,0011.30,0006.00,0005.24
2022-07-28 12:04:00,,0831.9,4.99,0.00,31.4,29.2,00.0,39.8,32.5,34.6,0000.0,0011.39,0006.00,0005.25
2022-07-28 12:05:00,,0832.0,5.00,0.00,31.4,29.2,00.0,39.8,32.5,34.7,0000.0,0011.37,0006.00,0005.25
2022-07-28 12:06:00,,0831.9,5.00,0.00,31.4,29.2,00.0,39.8,32.5,34.6,0000.0,0011.50,0006.03,0005.26
2022-07-28 12:07:00,,0831.9,5.00,0.00,31.4,29.3,00.0,39.8,32.5,34.6,0000.0,0011.57,0006.05,0005.26
2022-07-28 12:08:00,,0832.0,5.00,0.00,31.4,29.3,00.0,39.8,32.5,34.7,0000.0,0011.52,0006.04,0005.29
2022-07-28 12:09:00,,0832.0,5.00,0.00,31.4,29.3,00.0,39.8,32.5,35.1,0000.0,0010.99,0006.04,0005.31
2022-07-28 12:10:00,,0832.1,4.99,0.00,31.5,29.3,00.0,39.8,32.6,34.9,0000.0,0010.71,0006.02,0005.33
2022-07-28 12:11:00,,0832.1,5.01,0.00,31.6,29.4,00.0,39.8,32.7,34.6,0000.0,0010.67,0006.02,0005.33
2022-07-28 12:12:00,,0832.2,4.99,0.00,31.7,29.3,00.0,39.8,32.7,34.4,0000.0,0010.62,0006.04,0005.35
2022-07-28 12:13:00,,0832.1,5.01,0.00,31.7,28.5,00.0,39.8,32.6,34.2,0000.0,0010.32,0006.06,0005.35
2022-07-28 12:14:00,,0832.1,5.01,0.00,31.6,28.0,00.0,39.7,32.4,34.3,0000.0,0009.82,0006.06,0005.35
2022-07-28 12:15:00,,0832.1,4.99,0.00,31.5,27.8,00.0,39.8,32.3,34.3,0000.0,0009.64,0006.11,0005.38
2022-07-28 12:16:00,,0832.1,5.01,0.00,31.4,27.9,00.0,39.7,32.2,34.5,0000.0,0009.79,0006.18,0005.42
2022-07-28 12:17:00,,0832.0,5.01,0.00,31.3,28.0,00.0,39.7,32.2,34.8,0000.0,0010.08,0006.24,0005.46
2022-07-28 12:18:00,,0832.1,5.01,0.00,31.2,28.1,00.0,39.7,32.2,35.0,0000.0,0010.23,0006.32,0005.51
2022-07-28 12:19:00,,0832.1,5.00,0.00,31.3,28.3,00.0,39.7,32.3,35.2,0000.0,0010.30,0006.35,0005.51
2022-07-28 12:20:00,,0832.1,5.01,0.00,31.6,28.4,00.0,39.7,32.5,34.8,0000.0,0010.30,0006.33,0005.50
2022-07-28 12:21:00,,0832.1,5.00,0.00,31.8,28.5,00.0,39.7,32.5,34.1,0000.0,0010.69,0006.32,0005.48
2022-07-28 12:22:00,,0832.2,5.01,0.00,31.9,28.6,00.0,39.7,32.5,34.0,0000.0,0011.26,0006.34,0005.48
2022-07-28 12:23:00,,0832.1,4.99,0.00,31.9,28.7,00.0,39.8,32.5,34.0,0000.0,0011.44,0006.33,0005.48
2022-07-28 12:24:00,,0832.1,5.00,0.00,31.9,28.8,00.0,39.8,32.5,34.1,0000.0,0011.39,0006.32,0005.49
2022-07-28 12:25:00,,0832.2,5.01,0.00,31.9,28.9,00.0,39.9,32.5,34.1,0000.0,0011.35,0006.29,0005.49
2022-07-28 12:26:00,,0832.2,5.01,0.00,31.9,28.9,00.0,39.9,32.5,34.3,0000.0,0011.44,0006.32,0005.49
2022-07-28 12:27:00,,0832.2,4.99,0.00,31.9,29.0,00.0,39.9,32.5,34.5,0000.0,0011.29,0006.26,0005.46
2022-07-28 12:28:00,,0832.3,5.01,0.00,31.9,29.1,00.0,40.0,32.5,34.5,0000.0,0011.06,0006.22,0005.43
2022-07-28 12:29:00,,0832.3,5.00,0.00,31.8,29.1,00.0,40.0,32.5,34.4,0000.0,0010.77,0006.13,0005.39
2022-07-28 12:30:00,,0832.3,5.00,0.00,31.8,29.2,00.0,40.0,32.6,34.5,0000.0,0010.66,0006.07,0005.36
2022-07-28 12:31:00,,0832.4,4.99,0.00,31.8,29.2,00.0,40.0,32.6,34.7,0000.0,0010.69,0006.10,0005.38
2022-07-28 12:32:00,,0832.4,5.00,0.00,31.7,29.2,00.0,40.0,32.6,34.7,0000.0,0011.46,0006.16,0005.40
2022-07-28 12:33:00,,0832.3,5.01,0.00,31.7,29.3,00.0,40.0,32.6,34.7,0000.0,0011.34,0006.19,0005.42
2022-07-28 12:34:00,,0832.4,5.00,0.00,31.7,29.3,00.0,40.0,32.6,34.9,0000.0,0011.02,0006.18,0005.44
2022-07-28 12:35:00,,0832.3,4.99,0.00,31.7,29.3,00.0,40.1,32.7,35.2,0000.0,0011.17,0006.20,0005.44
2022-07-28 12:36:00,,0832.4,5.00,0.00,31.9,29.3,00.0,40.1,32.8,34.7,0000.0,0011.18,0006.20,0005.43
2022-07-28 12:37:00,,0832.5,5.00,0.00,32.0,29.4,00.0,40.1,32.8,34.3,0000.0,0011.03,0006.15,0005.40
2022-07-28 12:38:00,,0832.5,5.00,0.00,32.1,29.4,00.0,40.1,32.8,34.2,0000.0,0011.12,0006.16,0005.40
2022-07-28 12:39:00,,0832.5,4.99,0.00,32.1,29.4,00.0,40.1,32.8,34.2,0000.0,0011.17,0006.19,0005.38
2022-07-28 12:40:00,,0832.5,5.00,0.00,32.1,29.4,00.0,40.1,32.8,34.1,0000.0,0011.17,0006.19,0005.38
2022-07-28 12:41:00,,0832.6,5.01,0.00,32.1,29.5,00.0,40.2,32.8,34.1,0000.0,0011.20,0006.19,0005.36
2022-07-28 12:42:00,,0832.6,5.00,0.00,32.1,29.5,00.0,40.2,32.8,34.1,0000.0,0011.31,0006.18,0005.32
2022-07-28 12:43:00,,0832.6,4.99,0.00,32.0,29.5,00.0,40.2,32.8,34.1,0000.0,0010.59,0006.12,0005.29
2022-07-28 12:44:00,,0832.6,4.99,0.00,32.0,29.5,00.0,40.2,32.8,33.8,0000.0,0010.02,0006.08,0005.27
2022-07-28 12:45:00,,0832.6,5.01,0.00,32.0,29.5,00.0,40.3,32.8,33.8,0000.0,0010.00,0006.05,0005.24
2022-07-28 12:46:00,,0832.7,5.00,0.00,31.9,29.5,00.0,40.3,32.8,33.9,0000.0,0010.01,0006.04,0005.22
2022-07-28 12:47:00,,0832.7,4.99,0.00,31.9,29.6,00.0,40.3,32.8,34.2,0000.0,0010.41,0006.11,0005.22
2022-07-28 12:48:00,,0832.7,5.00,0.00,31.9,29.6,00.0,40.3,32.9,34.3,0000.0,0010.35,0006.09,0005.23
2022-07-28 12:49:00,,0832.7,5.02,0.00,31.8,29.6,00.0,40.3,32.9,34.1,0000.0,0010.23,0006.05,0005.23
2022-07-28 12:50:00,,0832.7,5.00,0.00,31.8,29.6,00.0,40.3,32.9,34.3,0000.0,0010.30,0006.05,0005.24
2022-07-28 12:51:00,,0832.7,4.99,0.00,31.8,29.6,00.0,40.3,32.9,34.4,0000.0,0010.76,0006.09,0005.27
2022-07-28 12:52:00,,0832.7,5.00,0.00,31.8,29.6,00.0,40.3,32.8,34.4,0000.0,0010.91,0006.15,0005.28
2022-07-28 12:53:00,,0832.7,5.02,0.00,31.7,29.6,00.0,40.3,32.9,34.2,0000.0,0010.82,0006.15,0005.30
2022-07-28 12:54:00,,0832.7,4.99,0.00,31.7,29.7,00.0,40.2,32.9,33.8,0000.0,0010.57,0006.13,0005.28
2022-07-28 12:55:00,,0832.8,5.01,0.00,31.7,29.7,00.0,40.2,32.9,33.5,0000.0,0010.46,0006.05,0005.21
2022-07-28 12:56:00,,0832.8,5.00,0.00,31.7,29.7,00.0,40.2,32.9,33.4,0000.0,0010.38,0005.99,0005.14
2022-07-28 12:57:00,,0832.8,5.00,0.00,31.6,29.7,00.0,40.2,32.9,33.3,0000.0,0010.06,0005.84,0005.05
2022-07-28 12:58:00,,0832.8,5.00,0.00,31.6,29.7,00.0,40.2,32.9,32.9,0000.0,0010.06,0005.67,0004.94
2022-07-28 12:59:00,,0832.8,5.00,0.00,31.6,29.7,00.0,40.2,32.9,31.8,0000.0,0010.01,0005.47,0004.76
